Northolt, United Kingdom

5:22 PM BST on May 22, 2017 (GMT +0100)
Northolt Air Base

Weather History for EGWU - January, 2013

Change the Weather History Date:

Saturday, January 26, 2013

  Actual Average Record
Temperature  
Mean Temperature 40 °F -  
Max Temperature 46 °F 46 °F 55 °F (2003)
Min Temperature 35 °F 36 °F 26 °F (2007)
Degree Days  
Heating Degree Days 24    
Moisture  
Dew Point 36 °F    
Average Humidity 81    
Maximum Humidity 93    
Minimum Humidity 57    
Precipitation  
Precipitation 0.03 in - - ()
Sea Level Pressure  
Sea Level Pressure 29.70 in    
Wind  
Wind Speed 9 mph ()    
Max Wind Speed 17 mph    
Max Gust Speed -    
Visibility 7.2 miles    
Events      
Averages and records for this station are not official NWS values.
T = Trace of Precipitation, MM = Missing Value Source: Averaged Metar Reports

Daily Weather History Graph

Daily Weather History Graph

Search for Another Location

Airport or City:

Trip Planner

Search our weather history database for the weather conditions in past years. The results will help you decide how hot, cold, wet, or windy it might be!

Date:

Astronomy

Jan. 26, 2013 Rise Set
Actual Time 7:48 AM GMT 4:40 PM GMT
Civil Twilight 7:11 AM GMT 5:17 PM GMT
Nautical Twilight 6:30 AM GMT 5:58 PM GMT
Astronomical Twilight 5:51 AM GMT 6:37 PM GMT
Moon 4:25 PM GMT (1/26) 6:54 AM GMT (1/26)
Length of Visible Light 10h 06m
Length of Day
8h 51m
Full, 100% of the Moon is Illuminated
Jan 26
Full
Jan 27
Full
Feb 3
Last Quarter
Feb 10
New
Feb 17
First Quarter

Hourly Weather History & Observations

Time (GMT) Temp. Windchill Dew Point Humidity Pressure Visibility Wind Dir Wind Speed Gust Speed Precip Events Conditions
12:50 AM 37.4 °F 29.3 °F 33.8 °F 87% 29.56 in 3.1 mi SSE 12.7 mph - N/A   Overcast
1:50 AM 35.6 °F 27.5 °F 33.8 °F 93% 29.56 in 3.7 mi South 11.5 mph - N/A   Overcast
2:50 AM 36 °F - 34 °F 87% 29.59 in 6 mi South 9.2 mph - -   Overcast
2:50 AM 35.6 °F 28.6 °F 33.8 °F 93% 29.56 in 6.2 mi South 9.2 mph - N/A   Overcast
3:50 AM 35.6 °F 31.7 °F 33.8 °F 93% 29.59 in 1.6 mi SSE 4.6 mph - N/A   Overcast
4:50 AM 35.6 °F - 33.8 °F 93% 29.62 in 1.4 mi WNW 2.3 mph - N/A   Overcast
5:50 AM 37 °F - 36 °F 92% 29.66 in 4 mi SW 2.3 mph - -   Scattered Clouds
5:50 AM 37.4 °F - 35.6 °F 93% 29.65 in 3.7 mi SW 2.3 mph - N/A   Mostly Cloudy
6:50 AM 35.6 °F 29.2 °F 33.8 °F 93% 29.68 in 6.2 mi West 8.1 mph - N/A   Partly Cloudy
7:50 AM 37.4 °F 30.3 °F 33.8 °F 87% 29.71 in 6.2 mi NW 10.4 mph - N/A   Partly Cloudy
8:50 AM 37 °F - 34 °F 86% 29.78 in 16 mi WNW 8.1 mph - -   Scattered Clouds
8:50 AM 37.4 °F 31.4 °F 33.8 °F 87% 29.77 in 6.2 mi WNW 8.1 mph - N/A   Scattered Clouds
9:50 AM 39.2 °F 33.0 °F 37.4 °F 93% 29.80 in 6.2 mi West 9.2 mph - N/A   Mostly Cloudy
10:50 AM 41.0 °F 34.3 °F 35.6 °F 81% 29.80 in - West 11.5 mph - N/A   Clear
11:50 AM 44 °F - 36 °F 64% 29.83 in 19 mi West 10.4 mph - -   Scattered Clouds
11:50 AM 42.8 °F 37.0 °F 35.6 °F 76% 29.80 in - West 10.4 mph - N/A   Clear
12:50 PM 44.6 °F 39.2 °F 35.6 °F 71% 29.80 in - WSW 10.4 mph - N/A   Clear
1:50 PM 46.4 °F 41.1 °F 35.6 °F 66% 29.83 in 6.2 mi WSW 11.5 mph - N/A   Mostly Cloudy
2:50 PM 46 °F - 36 °F 57% 29.83 in 19 mi WSW 10.4 mph - -   Scattered Clouds
2:50 PM 46.4 °F 41.5 °F 35.6 °F 66% 29.83 in 6.2 mi WSW 10.4 mph - N/A   Mostly Cloudy
3:50 PM 46.4 °F 41.9 °F 37.4 °F 71% 29.80 in 6.2 mi SSW 9.2 mph - N/A   Mostly Cloudy
4:50 PM 44.6 °F 40.2 °F 35.6 °F 71% 29.80 in 6.2 mi SSW 8.1 mph - N/A   Unknown
5:50 PM 44 °F - 36 °F 66% 29.79 in 17 mi South 10.4 mph - -   Scattered Clouds
5:50 PM 42.8 °F 37.0 °F 35.6 °F 76% 29.77 in 6.2 mi South 10.4 mph - N/A   Mostly Cloudy
6:50 PM 44.6 °F 39.2 °F 39.2 °F 81% 29.74 in 6.2 mi SSW 10.4 mph - N/A   Mostly Cloudy
7:50 PM 44.6 °F 39.7 °F 39.2 °F 81% 29.71 in 6.2 mi SSW 9.2 mph - N/A   Mostly Cloudy
8:50 PM 45 °F - 42 °F 83% 29.69 in 6 mi SSW 13.8 mph - -   Overcast
8:50 PM 44.6 °F 38.1 °F 41.0 °F 87% 29.68 in 6.2 mi SSW 13.8 mph - N/A   Overcast
9:50 PM 44.6 °F 37.8 °F 41.0 °F 87% 29.62 in 5.0 mi SSW 15.0 mph - N/A   Mostly Cloudy
10:50 PM 44.6 °F 37.4 °F 41.0 °F 87% 29.59 in 5.0 mi SSW 16.1 mph - N/A   Mostly Cloudy
11:50 PM 46 °F - 40 °F 74% 29.56 in 12 mi SSW 17.3 mph - -   Mostly Cloudy
11:50 PM 46.4 °F 39.5 °F 41.0 °F 81% 29.53 in 6.2 mi SSW 17.3 mph - N/A   Mostly Cloudy